Weather History for Rome Fiumicino, Italy

Change the Weather History Date:

Wednesday, May 1, 2013

  Actual Average Record
Temperature  
Mean Temperature 68 °F -  
Max Temperature 78 °F 72 °F 78 °F (2013)
Min Temperature 57 °F 53 °F 44 °F (2002)
Cooling Degree Days 2    
Growing Degree Days 18 (Base 50)    
Moisture  
Dew Point 53 °F    
Average Humidity 63    
Maximum Humidity 88    
Minimum Humidity 30    
Precipitation  
Precipitation 0.00 in 0.04 in - ()
Sea Level Pressure  
Sea Level Pressure 30.04 in    
Wind  
Wind Speed 5 mph ()    
Max Wind Speed 13 mph    
Max Gust Speed -    
Visibility 6.2 miles    
Events Rain    
Averages and records for this station are not official NWS values.
T = Trace of Precipitation, MM = Missing Value Source: Averaged Metar Reports

Daily Weather History Graph

Daily Weather History Graph

Search for Another Location

Airport:

Trip Planner

Search our weather history database for the weather conditions in past years. The results will help you decide how hot, cold, wet, or windy it might be!

Date:

Astronomy

May. 01, 2013 Rise Set
Actual Time 6:07 AM CEST 8:09 PM CEST
Civil Twilight 5:37 AM CEST 8:39 PM CEST
Nautical Twilight 5:00 AM CEST 9:17 PM CEST
Astronomical Twilight 4:19 AM CEST 9:57 PM CEST
Moon 1:07 AM CEST (5/1) 11:25 AM CEST (5/1)
Length of Visible Light 15h 02m
Length of Day
14h 02m
Waning Gibbous, 62% of the Moon is Illuminated
May 1
Waning Gibbous
May 2
Last Quarter
May 10
New
May 18
First Quarter
May 25
Full

Hourly Weather History & Observations

Time (CEST) Temp. Dew Point Humidity Pressure Visibility Wind Dir Wind Speed Gust Speed Precip Events Conditions
12:20 AM 62.6 °F 53.6 °F 72% 30.04 in - NE 6.9 mph - N/A   Clear
12:50 AM 62.6 °F 53.6 °F 72% 30.04 in - NNE 4.6 mph - N/A   Clear
1:20 AM 60.8 °F 51.8 °F 72% 30.04 in - NE 4.6 mph - N/A   Clear
1:50 AM 62.6 °F 53.6 °F 72% 30.04 in - ENE 4.6 mph - N/A   Clear
2:20 AM 64.4 °F 53.6 °F 68% 30.04 in - East 9.2 mph - N/A   Clear
2:50 AM 60.8 °F 53.6 °F 77% 30.01 in - ENE 4.6 mph - N/A   Clear
3:20 AM 60.8 °F 53.6 °F 77% 30.01 in - Variable 2.3 mph - N/A   Clear
3:50 AM 62.6 °F 51.8 °F 68% 30.01 in - East 4.6 mph - N/A   Clear
4:20 AM 62.6 °F 51.8 °F 68% 30.01 in - ESE 4.6 mph - N/A   Clear
4:50 AM 60.8 °F 51.8 °F 72% 30.04 in - Variable 2.3 mph - N/A   Clear
5:20 AM 59.0 °F 51.8 °F 77% 30.04 in - Variable 2.3 mph - N/A   Clear
5:50 AM 57.2 °F 51.8 °F 82% 30.04 in - Variable 3.5 mph - N/A   Clear
6:20 AM 59.0 °F 51.8 °F 77% 30.04 in - Variable 3.5 mph - N/A   Clear
6:50 AM 57.2 °F 51.8 °F 82% 30.04 in - NE 3.5 mph - N/A   Clear
7:20 AM 59.0 °F 53.6 °F 82% 30.04 in - NE 3.5 mph - N/A   Clear
7:50 AM 62.6 °F 55.4 °F 77% 30.04 in - ENE 3.5 mph - N/A   Clear
8:20 AM 66.2 °F 55.4 °F 68% 30.04 in - Variable 3.5 mph - N/A   Clear
8:50 AM 69.8 °F 57.2 °F 64% 30.04 in - Variable 1.2 mph - N/A   Clear
9:20 AM 71.6 °F 57.2 °F 60% 30.04 in - NE 4.6 mph - N/A   Clear
9:50 AM 75.2 °F 57.2 °F 53% 30.04 in - Variable 2.3 mph - N/A   Clear
10:20 AM 77.0 °F 53.6 °F 44% 30.04 in - Variable 2.3 mph - N/A   Clear
10:50 AM 77.0 °F 50.0 °F 39% 30.04 in - South 6.9 mph - N/A   Clear
11:20 AM 77.0 °F 46.4 °F 34% 30.04 in - South 6.9 mph - N/A   Clear
11:50 AM 78.8 °F 44.6 °F 30% 30.04 in - SSE 9.2 mph - N/A   Clear
12:20 PM 77.0 °F 46.4 °F 34% 30.04 in - SSE 11.5 mph - N/A   Clear
12:50 PM 75.2 °F 48.2 °F 38% 30.06 in - South 12.7 mph - N/A   Clear
1:20 PM 73.4 °F 48.2 °F 41% 30.06 in - SSW 6.9 mph - N/A   Clear
1:50 PM 75.2 °F 50.0 °F 41% 30.06 in - SSW 5.8 mph - N/A   Clear
2:20 PM 73.4 °F 50.0 °F 44% 30.06 in - SSE 8.1 mph - N/A   Clear
2:50 PM 71.6 °F 51.8 °F 50% 30.06 in - SSE 9.2 mph - N/A   Clear
3:20 PM 71.6 °F 53.6 °F 53% 30.04 in - SSE 8.1 mph - N/A   Clear
3:50 PM 69.8 °F 53.6 °F 56% 30.04 in - SSE 8.1 mph - N/A   Clear
4:20 PM 69.8 °F 55.4 °F 60% 30.01 in - East 9.2 mph - N/A   Clear
4:50 PM 73.4 °F 50.0 °F 44% 30.01 in 6.2 mi East 5.8 mph - N/A   Partly Cloudy
5:20 PM 69.8 °F 55.4 °F 60% 30.01 in 6.2 mi Variable 4.6 mph - N/A   Partly Cloudy
5:50 PM 69.8 °F 55.4 °F 60% 30.01 in - West 6.9 mph - N/A   Clear
6:20 PM 71.6 °F 51.8 °F 50% 30.04 in 6.2 mi SSW 6.9 mph - N/A   Scattered Clouds
6:50 PM 71.6 °F 51.8 °F 50% 30.01 in 6.2 mi SSW 8.1 mph - N/A   Partly Cloudy
7:20 PM 69.8 °F 53.6 °F 56% 30.01 in - SSW 9.2 mph - N/A   Clear
7:50 PM 68.0 °F 55.4 °F 64% 30.04 in - Variable 3.5 mph - N/A   Clear
8:20 PM 68.0 °F 53.6 °F 60% 30.04 in - Variable 2.3 mph - N/A   Clear
8:50 PM 66.2 °F 57.2 °F 73% 30.06 in 6.2 mi Variable 3.5 mph - N/A Rain Light Rain
9:20 PM 62.6 °F 59.0 °F 88% 30.06 in 6.2 mi North 5.8 mph - N/A Rain Rain
9:50 PM 62.6 °F 59.0 °F 88% 30.04 in 6.2 mi NE 8.1 mph - N/A Rain Light Rain
10:20 PM 62.6 °F 57.2 °F 82% 30.04 in 6.2 mi ENE 9.2 mph - N/A   Partly Cloudy
10:50 PM 64.4 °F 59.0 °F 83% 30.04 in 6.2 mi NE 6.9 mph - N/A   Partly Cloudy
11:20 PM 64.4 °F 57.2 °F 77% 30.04 in 6.2 mi ENE 11.5 mph - N/A   Partly Cloudy
11:50 PM 64.4 °F 57.2 °F 77% 30.04 in 6.2 mi ENE 12.7 mph - N/A Rain Light Rain